Change the Weather History Date:

Monday, January 28, 2013

  Actual Average (KISP) Record (KISP)
Temperature  
Mean Temperature 28 °F 31 °F  
Max Temperature 37 °F 38 °F 61 °F (2002)
Min Temperature 18 °F 23 °F 4 °F (2005)
Degree Days  
Heating Degree Days 38 34  
Month to date heating degree days 965  
Since 1 July heating degree days 2892  
Cooling Degree Days 0 0  
Month to date cooling degree days 0  
Year to date cooling degree days 0  
Moisture  
Dew Point 26 °F    
Average Humidity 82    
Maximum Humidity 93    
Minimum Humidity 52    
Precipitation  
Precipitation 0.14 in 0.10 in 1.17 in (1994)
Month to date precipitation 3.31  
Year to date precipitation 3.31  
Snow  
Snow 0.00 in 0.20 in 9.10 in (2004)
Month to date snowfall 6.0  
Since 1 July snowfall 11.9  
Snow Depth -    
Sea Level Pressure  
Sea Level Pressure 30.22 in    
Wind  
Wind Speed 3 mph (SW)    
Max Wind Speed 10 mph    
Max Gust Speed -    
Visibility 7 miles    
Events Rain , Snow    
T = Trace of Precipitation, MM = Missing Value Source: NWS Daily Summary

Daily Weather History Graph

Daily Weather History Graph

Search for Another Location

Airport or City:

Trip Planner

Search our weather history database for the weather conditions in past years. The results will help you decide how hot, cold, wet, or windy it might be!

Date:

Astronomy

Jan. 28, 2013 Rise Set
Actual Time 7:05 AM EST 5:04 PM EST
Civil Twilight 6:35 AM EST 5:33 PM EST
Nautical Twilight 6:02 AM EST 6:06 PM EST
Astronomical Twilight 5:30 AM EST 6:38 PM EST
Moon 6:57 PM EST (1/28) 7:28 AM EST (1/28)
Length of Visible Light 10h 57m
Length of Day
9h 59m
Full, 98% of the Moon is Illuminated
Jan 28
Full
Feb 3
Last Quarter
Feb 10
New
Feb 17
First Quarter
Feb 25
Full

Hourly Weather History & Observations

Time (EST) Temp. Windchill Dew Point Humidity Pressure Visibility Wind Dir Wind Speed Gust Speed Precip Events Conditions
12:56 AM 18.0 °F - 9.0 °F 68% 30.48 in 10.0 mi Calm Calm - N/A   Clear
1:56 AM 18.0 °F - 9.0 °F 68% 30.49 in 10.0 mi Calm Calm - N/A   Clear
2:56 AM 18.0 °F - 9.0 °F 68% 30.48 in 10.0 mi Calm Calm - N/A   Clear
3:56 AM 18.0 °F - 9.0 °F 68% 30.46 in 10.0 mi Calm Calm - N/A   Clear
4:56 AM 19.9 °F - 12.0 °F 71% 30.44 in 10.0 mi Calm Calm - N/A   Clear
5:56 AM 21.9 °F - 14.0 °F 72% 30.44 in 10.0 mi Calm Calm - N/A   Mostly Cloudy
6:56 AM 23.0 °F - 16.0 °F 74% 30.44 in 10.0 mi Calm Calm - N/A   Overcast
7:56 AM 25.0 °F - 18.0 °F 75% 30.43 in 10.0 mi Calm Calm - N/A   Overcast
8:56 AM 28.9 °F - 19.0 °F 67% 30.43 in 10.0 mi Calm Calm - N/A   Overcast
9:56 AM 30.9 °F - 15.1 °F 52% 30.42 in 10.0 mi Calm Calm - N/A   Overcast
10:56 AM 30.9 °F - 21.9 °F 69% 30.39 in 5.0 mi Calm Calm - 0.00 in Snow Light Snow
11:56 AM 34.0 °F 28.0 °F 26.1 °F 73% 30.32 in 10.0 mi SSW 6.9 mph - 0.00 in   Overcast
12:11 PM 33.8 °F 27.0 °F 24.8 °F 70% 30.32 in 4.0 mi SW 8.1 mph - 0.00 in Snow Light Snow
12:56 PM 33.1 °F 27.7 °F 27.0 °F 78% 30.26 in 4.0 mi SSW 5.8 mph - 0.00 in Snow Light Snow
1:23 PM 33.8 °F 29.6 °F 28.4 °F 81% 30.23 in 4.0 mi SSW 4.6 mph - 0.01 in Snow Light Snow
1:56 PM 35.1 °F 29.3 °F 30.0 °F 82% 30.21 in 6.0 mi SSW 6.9 mph - 0.01 in   Overcast
2:48 PM 35.6 °F 29.2 °F 32.0 °F 87% 30.17 in 6.0 mi SSW 8.1 mph - 0.01 in Rain Light Rain
2:56 PM 35.1 °F 30.1 °F 32.0 °F 89% 30.17 in 6.0 mi SSW 5.8 mph - 0.01 in Rain Light Rain
3:38 PM 35.6 °F 28.0 °F 32.0 °F 87% 30.13 in 7.0 mi South 10.4 mph - 0.01 in Rain Light Rain
3:56 PM 36.0 °F 29.6 °F 32.0 °F 86% 30.14 in 5.0 mi SW 8.1 mph - 0.02 in Rain Light Rain
4:04 PM 35.6 °F 28.6 °F 32.0 °F 87% 30.13 in 4.0 mi SSW 9.2 mph - 0.01 in Rain Light Rain
4:18 PM 35.6 °F 29.2 °F 33.8 °F 93% 30.12 in 4.0 mi SSW 8.1 mph - 0.02 in Rain Light Rain
4:38 PM 37.4 °F 31.4 °F 33.8 °F 87% 30.11 in 4.0 mi SSW 8.1 mph - 0.04 in Rain Light Rain
4:56 PM 37.0 °F 30.4 °F 34.0 °F 89% 30.11 in 3.0 mi SW 9.2 mph - 0.08 in Rain Rain
6:56 PM 36.0 °F 32.1 °F 34.0 °F 93% 30.07 in 8.0 mi SW 4.6 mph - 0.00 in   Overcast
7:10 PM 35.6 °F 29.2 °F 33.8 °F 93% 30.07 in 7.0 mi SW 8.1 mph - 0.00 in Rain Light Rain
7:19 PM 35.6 °F 29.2 °F 33.8 °F 93% 30.07 in 7.0 mi SW 8.1 mph - 0.01 in Rain Light Rain
7:32 PM 35.6 °F 29.9 °F 33.8 °F 93% 30.07 in 7.0 mi WSW 6.9 mph - 0.02 in Rain Light Rain
7:54 PM 35.6 °F 29.9 °F 33.8 °F 93% 30.06 in 8.0 mi SW 6.9 mph - 0.02 in Rain Light Rain
7:56 PM 36.0 °F 30.3 °F 33.1 °F 89% 30.06 in 8.0 mi WSW 6.9 mph - 0.02 in Rain Light Rain
8:47 PM 35.6 °F 29.9 °F 33.8 °F 93% 30.05 in 7.0 mi WSW 6.9 mph - 0.00 in   Overcast
8:56 PM 35.1 °F 28.6 °F 33.1 °F 92% 30.05 in 7.0 mi WSW 8.1 mph - 0.00 in   Overcast
9:56 PM 35.1 °F 28.6 °F 33.1 °F 92% 30.03 in 8.0 mi WSW 8.1 mph - N/A   Overcast
10:18 PM 35.6 °F 29.2 °F 33.8 °F 93% 30.02 in 7.0 mi WSW 8.1 mph - N/A   Overcast
10:56 PM 35.1 °F 30.1 °F 33.1 °F 92% 30.02 in 6.0 mi West 5.8 mph - N/A   Overcast
11:56 PM 35.1 °F 30.1 °F 33.1 °F 92% 30.02 in 5.0 mi WSW 5.8 mph - N/A   Overcast